Weather History for Minneapolis Flying Cloud, MN

Change the Weather History Date:

Wednesday, February 12, 2014

  Actual Average Record
Temperature  
Mean Temperature 20 °F -  
Max Temperature 24 °F 27 °F 53 °F (2005)
Min Temperature 15 °F 12 °F -9 °F (2003)
Degree Days  
Heating Degree Days 46    
Moisture  
Dew Point 14 °F    
Average Humidity 81    
Maximum Humidity 88    
Minimum Humidity 68    
Precipitation  
Precipitation 0.01 in - - ()
Sea Level Pressure  
Sea Level Pressure 30.04 in    
Wind  
Wind Speed 7 mph (SSW)    
Max Wind Speed 14 mph    
Max Gust Speed -    
Visibility 6 miles    
Events Snow    
Averages and records for this station are not official NWS values.
T = Trace of Precipitation, MM = Missing Value Source: NWS Daily Summary

Daily Weather History Graph

Daily Weather History Graph

Search for Another Location

Airport:

Trip Planner

Search our weather history database for the weather conditions in past years. The results will help you decide how hot, cold, wet, or windy it might be!

Date:

Astronomy

Feb. 12, 2014 Rise Set
Actual Time 7:18 AM CST 5:38 PM CST
Civil Twilight 6:48 AM CST 6:08 PM CST
Nautical Twilight 6:14 AM CST 6:42 PM CST
Astronomical Twilight 5:40 AM CST 7:16 PM CST
Moon 3:50 PM CST (2/12) 5:38 AM CST (2/12)
Length of Visible Light 11h 19m
Length of Day
10h 19m
Waxing Gibbous, 95% of the Moon is Illuminated
Feb 12
Waxing Gibbous
Feb 14
Full
Feb 22
Last Quarter
Mar 1
New
Mar 8
First Quarter

Hourly Weather History & Observations

Time (CST) Temp. Windchill Dew Point Humidity Pressure Visibility Wind Dir Wind Speed Gust Speed Precip Events Conditions
12:53 AM 15.1 °F 2.5 °F 7.0 °F 70% 30.10 in 10.0 mi South 10.4 mph - N/A   Overcast
1:53 AM 16.0 °F 2.9 °F 8.1 °F 71% 30.10 in 10.0 mi South 11.5 mph - N/A   Overcast
2:36 AM 17.6 °F 5.7 °F 8.6 °F 68% 30.04 in 9.0 mi SSW 10.4 mph - N/A   Overcast
2:46 AM 15.8 °F 2.7 °F 8.6 °F 73% 30.04 in 2.5 mi SSW 11.5 mph - 0.00 in Snow Light Snow
2:53 AM 16.0 °F 5.3 °F 10.0 °F 77% 30.09 in 1.5 mi SSW 8.1 mph - 0.00 in Snow Light Snow
3:31 AM 15.8 °F 6.1 °F 12.2 °F 86% 30.04 in 1.0 mi SSW 6.9 mph - 0.00 in Snow Light Snow
3:53 AM 16.0 °F 6.3 °F 12.9 °F 88% 30.09 in 1.2 mi SSW 6.9 mph - 0.01 in Snow Light Snow
4:14 AM 15.8 °F 7.2 °F 12.2 °F 86% 30.04 in 2.5 mi South 5.8 mph - 0.00 in Snow Light Snow
4:30 AM 15.8 °F 7.2 °F 12.2 °F 86% 30.04 in 4.0 mi South 5.8 mph - 0.00 in Snow Light Snow
4:53 AM 16.0 °F 8.8 °F 12.9 °F 88% 30.10 in 9.0 mi South 4.6 mph - 0.00 in   Overcast
5:53 AM 16.0 °F 8.8 °F 12.9 °F 88% 30.11 in 6.0 mi South 4.6 mph - 0.00 in   Overcast
6:46 AM 15.8 °F - 12.2 °F 86% 30.05 in 2.5 mi Calm Calm - 0.00 in Snow Light Snow
6:53 AM 16.0 °F - 12.9 °F 88% 30.11 in 3.0 mi Calm Calm - 0.00 in Snow Light Snow
7:53 AM 17.1 °F - 12.9 °F 84% 30.12 in 7.0 mi Calm Calm - 0.00 in   Overcast
8:53 AM 17.1 °F - 12.9 °F 84% 30.14 in 7.0 mi Calm Calm - N/A   Overcast
9:53 AM 19.0 °F - 14.0 °F 81% 30.14 in 8.0 mi Calm Calm - N/A   Overcast
10:31 AM 19.4 °F - 15.8 °F 86% 30.08 in 7.0 mi Calm Calm - N/A   Overcast
10:49 AM 19.4 °F - 14.0 °F 80% 30.07 in 8.0 mi Calm Calm - N/A   Scattered Clouds
10:53 AM 19.9 °F - 15.1 °F 81% 30.12 in 8.0 mi Calm Calm - N/A   Partly Cloudy
11:30 AM 21.2 °F - 15.8 °F 80% 30.07 in 7.0 mi Calm Calm - N/A   Mostly Cloudy
11:53 AM 21.9 °F - 16.0 °F 78% 30.12 in 7.0 mi Calm Calm - N/A   Overcast
12:53 PM 23.0 °F 18.4 °F 16.0 °F 74% 30.09 in 7.0 mi SSE 3.5 mph - N/A   Overcast
1:53 PM 24.1 °F 16.0 °F 16.0 °F 71% 30.08 in 7.0 mi SSW 6.9 mph - N/A   Overcast
2:53 PM 23.0 °F 15.8 °F 15.1 °F 72% 30.05 in 7.0 mi WSW 5.8 mph - N/A   Overcast
3:53 PM 23.0 °F 17.0 °F 16.0 °F 74% 30.02 in 7.0 mi SSW 4.6 mph - N/A   Overcast
4:53 PM 21.0 °F 13.4 °F 15.1 °F 78% 30.00 in 6.0 mi SSW 5.8 mph - N/A   Haze
5:27 PM 21.2 °F 10.9 °F 15.8 °F 80% 29.96 in 5.0 mi SSW 9.2 mph - N/A   Haze
5:53 PM 19.9 °F 10.1 °F 15.1 °F 81% 29.99 in 6.0 mi SW 8.1 mph - N/A   Haze
6:53 PM 19.9 °F 11.1 °F 15.1 °F 81% 29.99 in 6.0 mi SW 6.9 mph - N/A   Haze
7:53 PM 19.9 °F 13.4 °F 15.1 °F 81% 29.98 in 6.0 mi SSW 4.6 mph - N/A   Haze
8:53 PM 19.9 °F 10.1 °F 16.0 °F 85% 29.95 in 6.0 mi South 8.1 mph - N/A   Overcast
9:41 PM 19.4 °F 6.0 °F 15.8 °F 86% 29.85 in 5.0 mi South 13.8 mph - N/A   Overcast
9:53 PM 19.0 °F 6.1 °F 16.0 °F 88% 29.90 in 5.0 mi South 12.7 mph - N/A   Overcast
10:53 PM 19.0 °F 7.5 °F 15.1 °F 85% 29.87 in 4.0 mi South 10.4 mph - N/A   Overcast
11:53 PM 18.0 °F 5.4 °F 15.1 °F 88% 29.83 in 4.0 mi South 11.5 mph - N/A   Overcast